North Las Vegas, NV

5:41 PM PDT on March 30, 2017 (GMT -0700)
North Las Vegas

Weather History for KVGT - December, 2012

Change the Weather History Date:

Friday, December 7, 2012

  Actual Average Record
Temperature  
Mean Temperature 58 °F 48 °F  
Max Temperature 66 °F 57 °F 72 °F (2003)
Min Temperature 51 °F 39 °F 29 °F (2011)
Degree Days  
Heating Degree Days 6 17  
Month to date heating degree days 112  
Since 1 July heating degree days 425  
Cooling Degree Days 0 0  
Month to date cooling degree days 0  
Year to date cooling degree days 3294  
Growing Degree Days 8 (Base 50)    
Moisture  
Dew Point 24 °F    
Average Humidity 28    
Maximum Humidity 41    
Minimum Humidity 16    
Precipitation  
Precipitation 0.00 in 0.01 in 0.46 in (2009)
Month to date precipitation 0.09  
Year to date precipitation 4.89  
Sea Level Pressure  
Sea Level Pressure 30.00 in    
Wind  
Wind Speed 13 mph (NNW)    
Max Wind Speed 23 mph    
Max Gust Speed 30 mph    
Visibility 10 miles    
Events      
T = Trace of Precipitation, MM = Missing Value Source: NWS Daily Summary

Daily Weather History Graph

Daily Weather History Graph

Search for Another Location

Airport or City:

Trip Planner

Search our weather history database for the weather conditions in past years. The results will help you decide how hot, cold, wet, or windy it might be!

Date:

Astronomy

Dec. 07, 2012 Rise Set
Actual Time 6:39 AM PST 4:25 PM PST
Civil Twilight 6:10 AM PST 4:54 PM PST
Nautical Twilight 5:38 AM PST 5:26 PM PST
Astronomical Twilight 5:07 AM PST 5:57 PM PST
Moon 12:12 AM PST (12/7) 12:16 PM PST (12/7)
Length of Visible Light 10h 43m
Length of Day
9h 46m
Last Quarter, 37% of the Moon is Illuminated
Dec 7
Last Quarter
Dec 13
New
Dec 19
First Quarter
Dec 28
Full
Jan 4
Last Quarter

Hourly Weather History & Observations

Time (PST) Temp. Dew Point Humidity Pressure Visibility Wind Dir Wind Speed Gust Speed Precip Events Conditions
12:53 AM 59.0 °F 33.1 °F 38% 29.94 in 10.0 mi North 12.7 mph - N/A   Clear
1:53 AM 57.0 °F 32.0 °F 39% 29.95 in 10.0 mi NNW 15.0 mph - N/A   Clear
2:53 AM 55.0 °F 30.9 °F 40% 29.95 in 10.0 mi North 15.0 mph - N/A   Clear
3:53 AM 55.0 °F 28.0 °F 35% 29.95 in 10.0 mi North 15.0 mph - N/A   Clear
4:53 AM 53.1 °F 26.1 °F 35% 29.97 in 10.0 mi NNW 15.0 mph 24.2 mph N/A   Clear
5:53 AM 53.1 °F 26.1 °F 35% 30.00 in 10.0 mi North 11.5 mph - N/A   Clear
6:53 AM 52.0 °F 28.9 °F 41% 30.03 in 10.0 mi NNW 11.5 mph - N/A   Clear
7:53 AM 55.9 °F 30.0 °F 37% 30.05 in 10.0 mi North 10.4 mph - N/A   Clear
8:53 AM 59.0 °F 32.0 °F 36% 30.05 in 10.0 mi North 17.3 mph 25.3 mph N/A   Clear
9:53 AM 61.0 °F 28.9 °F 30% 30.05 in 10.0 mi North 23.0 mph 29.9 mph N/A   Clear
10:53 AM 64.0 °F 25.0 °F 23% 30.05 in 10.0 mi North 11.5 mph - N/A   Clear
11:53 AM 64.9 °F 24.1 °F 21% 30.02 in 10.0 mi NNW 11.5 mph 19.6 mph N/A   Clear
12:53 PM 66.0 °F 23.0 °F 20% 30.01 in 10.0 mi NNW 15.0 mph - N/A   Clear
1:53 PM 66.0 °F 19.0 °F 17% 29.98 in 10.0 mi NNW 12.7 mph - N/A   Clear
2:53 PM 66.0 °F 19.0 °F 17% 29.98 in 10.0 mi NNW 13.8 mph - N/A   Clear
3:53 PM 64.9 °F 18.0 °F 16% 29.98 in 10.0 mi NNW 10.4 mph - N/A   Clear
4:53 PM 62.6 °F 19.4 °F 19% 29.96 in 10.0 mi North 8.1 mph - N/A   Clear
5:53 PM 59.0 °F 19.9 °F 22% 30.01 in 10.0 mi NNW 3.5 mph - N/A   Clear
6:53 PM 55.9 °F 21.0 °F 26% 30.02 in 10.0 mi NW 9.2 mph - N/A   Clear
7:53 PM 57.0 °F 19.9 °F 24% 30.01 in 10.0 mi North 9.2 mph - N/A   Clear
8:53 PM 54.0 °F 19.0 °F 25% 30.02 in 10.0 mi North 5.8 mph - N/A   Clear
9:53 PM 51.1 °F 23.0 °F 33% 30.02 in 10.0 mi NW 6.9 mph - N/A   Clear
10:53 PM 53.1 °F 19.0 °F 26% 30.01 in 10.0 mi North 11.5 mph - N/A   Clear
11:53 PM 51.1 °F 19.9 °F 29% 30.00 in 10.0 mi West 9.2 mph - N/A   Clear